User: anonymous   Login
Location: Altenst�hlen
(53.5567°N, 8.9425°E)
Time: 07:52:07
(UTC+00:00)
Language:

SJ 16-02 - Orbit

View from above orbital plane
View from above orbital plane
View from above satellite
View from above satellite

Ground track
Ground track

The orbit data is extracted from the following two-line orbital elements,

1 41634U 16043A   19348.07947881  .00000148  00000-0  20204-4 0  9996
2 41634  75.0049  61.1269 0007234  16.4433 343.6994 14.85626181187564
Epoch (UTC): 14 December 2019 01:54:26
Eccentricity: 0.0007234
inclination: 75.0049°
perigee height: 606 km
apogee height: 616 km
right ascension of ascending node: 61.1269°
argument of perigee: 16.4433°
revolutions per day: 14.85626181
mean anomaly at epoch: 343.6994°
orbit number at epoch: 18756

The dashed part of the orbit path shows where the satellite is in the earth's shadow,  

DLR